This is the latest recevied weather packets stored in our database for station/object KO6MEX-13. If no packets are shown the sender has not sent any weather packets the latest 1 day(s).
| Time | Temp. | Humidity | Pressure | Rain* | Wind** | Luminosity | Snow |
|---|---|---|---|---|---|---|---|
| 1778099964 | 21.67° C | 57% | 1021.3 hPa | 0 mm | - | 709 W/m² | - |
| 1778099661 | 21.67° C | 57% | 1021.3 hPa | 0 mm | - | 724 W/m² | - |
| 1778099358 | 20.56° C | 59% | 1021.4 hPa | 0 mm | - | 707 W/m² | - |
| 1778098449 | 21.11° C | 56% | 1021.2 hPa | 0 mm | - | 755 W/m² | - |
| 1778097235 | 21.11° C | 56% | 1021.5 hPa | 0 mm | - | 767 W/m² | - |
| 1778096932 | 21.67° C | 57% | 1021.4 hPa | 0 mm | - | 764 W/m² | - |
| 1778096629 | 21.11° C | 56% | 1021.2 hPa | 0 mm | - | 771 W/m² | - |
| 1778096023 | 20.56° C | 58% | 1021.5 hPa | 0 mm | - | 776 W/m² | - |
| 1778093900 | 20° C | 62% | 1021.8 hPa | 0 mm | - | 812 W/m² | - |
| 1778092081 | 18.89° C | 64% | 1021.8 hPa | 0 mm | - | 849 W/m² | - |
| 1778090870 | 18.89° C | 61% | 1022.1 hPa | 0 mm | - | 868 W/m² | - |
| 1778090262 | 18.33° C | 63% | 1022.2 hPa | 0 mm | - | 837 W/m² | - |
| 1778089657 | 18.33° C | 62% | 1022 hPa | 0 mm | - | 819 W/m² | - |
| 1778088748 | 17.22° C | 66% | 1022.1 hPa | 0 mm | - | 775 W/m² | - |
| 1778084505 | 18.33° C | 65% | 1022.2 hPa | 0 mm | - | 537 W/m² | - |
| 1778084202 | 18.33° C | 64% | 1022 hPa | 0 mm | - | 479 W/m² | - |
| 1778083293 | 18.33° C | 65% | 1022.4 hPa | 0 mm | - | 379 W/m² | - |
| 1778082688 | 17.78° C | 67% | 1022.2 hPa | 0 mm | - | 309 W/m² | - |
| 1778080939 | 16.11° C | 73% | 1022.5 hPa | 0 mm | - | 246 W/m² | - |
| 1778080334 | 16.11° C | 72% | 1022.4 hPa | 0 mm | - | 226 W/m² | - |
| 1778079121 | 15° C | 73% | 1022.6 hPa | 0 mm | - | 88 W/m² | - |
| 1778078819 | 15° C | 74% | 1022.4 hPa | 0 mm | - | 90 W/m² | - |
| 1778077609 | 13.33° C | 81% | 1022.4 hPa | 0 mm | - | 62 W/m² | - |
| 1778077004 | 13.33° C | 79% | 1022.2 hPa | 0 mm | - | 50 W/m² | - |
| 1778074882 | 10.56° C | 89% | 1022.1 hPa | 0 mm | - | 23 W/m² | - |
* Rain latest hour (hover to see other rain measurements)
** Current wind speed in m/s (hover to see current wind gust speed)